Regional Weather Roundup
Issued by NWS

Home | Current Version | Previous Version | Graphics & Text | Print | Product List | Glossary On
Versions: 1 2 3 4 5 6 7 8 9 10 11 12 13 14 15 16 17 18 19 20 21 22 23 24 25 26 27 28 29 30 31 32 33 34 35 36 37 38 39 40 41 42 43 44 45 46 47 48 49 50
000
ASUS45 KSLC 251710
RWRUT

UTAH REGIONAL WEATHER ROUNDUP
NATIONAL WEATHER SERVICE SALT LAKE CITY UT
1100 AM MDT FRI JUL 25 2014

UTZ001>011-023>025-251800-

NORTHERN UTAH

CITY           SKY/WX    TMP DP  RH WIND       PRES   REMARKS
HILL AFB       SUNNY     78  44  30 VRB5      30.09S
LOGAN          SUNNY     69  37  30 NE6       30.11S
OGDEN          SUNNY     78  45  30 W6        30.07S
PROVO AIRPORT  MOSUNNY   79  54  41 CALM      30.09F
SALT LAKE CITY PTSUNNY   81  45  28 VRB3      30.05F
VERNAL         SUNNY     82  54  37 CALM      30.12F
WENDOVER       SUNNY     79  34  19 S8        30.08S
HEBER CITY     SUNNY     81  45  28 SW5       30.14S
WEST JORDAN    SUNNY     81  52  36 CALM      30.09S

$$

UTZ012>022-026-027-251800-

SOUTHERN UTAH

CITY           SKY/WX    TMP DP  RH WIND       PRES   REMARKS
BRYCE CANYON   MOSUNNY   76  47  35 SE10      30.37R
CEDAR CITY     CLOUDY    86  43  22 SW12      30.17S
MILFORD        SUNNY     89  49  25 S18       30.11S
MOAB/CYNLANDS  LGT RAIN  87  48  25 SE6       30.09R
PRICE          SUNNY     84  47  27 SE9       30.19S
ST GEORGE      SUNNY     95  52  23 CALM      30.00S HX  92
KANAB            N/A     84  48  28 S8        30.20S

$$

REGIONAL REPORTS     COLORADO/ARIZONA

CITY           SKY/WX    TMP DP  RH WIND       PRES   REMARKS
CRAIG, CO      MOSUNNY   72  56  57 N3        30.20F
GRAND JUNCTION PTSUNNY   82  51  34 SE14      30.14F
RIFLE          SUNNY     81  50  33 NE6       30.19F
MONTROSE       PTSUNNY   77  54  44 NE3       30.26F
CORTEZ         CLOUDY    84  49  29 W6        30.25S
PAGE, AZ       MOSUNNY   91  49  23 NW6       30.12S
GRAND CANYON   MOSUNNY   80  49  33 SW9G18    30.33S
KINGMAN        PTSUNNY   90  53  28 S8        30.07R
FLAGSTAFF      SUNNY     79  48  33 MISG      30.37S

$$

REGIONAL REPORTS    NEVADA/IDAHO/WYOMING

CITY           SKY/WX    TMP DP  RH WIND       PRES   REMARKS
LAS VEGAS, NV  CLOUDY    97  49  19 S9        29.87S HX  94
ELY            SUNNY     87  24  10 SW15G22   30.16F
ELKO           SUNNY     73  31  21 CALM      30.13F
POCATELLO, ID  SUNNY     70  28  21 W10G18    30.14F
BURLEY         SUNNY     68  37  32 W13       30.12F
EVANSTON, WY   SUNNY     77  39  25 SW16G23   30.24S
ROCK SPRINGS   SUNNY     79  38  22 SW9G18    30.19S

$$



USA.gov is the U.S. government's official web portal to all federal, state and local government web resources and services.